sat.trackr.live / text

‹ back to catalog

STARLINK-3820

NORAD 52364 · 2022-045AK

PAYLOAD ACTIVE UNKNOWN

§ Identity

Operator
Country
US
Launch date
2022-04-29
Launch site
AFETR
Launch vehicle
Mass (kg)
RCS (m²)

Purposes: comms

External: N2YO · Heavens-Above · Gunter

§ Orbital elements

Epoch: 2026-09-20T03:39:06.399360Z

Period
93.90 min
Inclination
53.1613°
Eccentricity
0.0001412
Mean motion
15.33551607 rev/d
Perigee alt
464.3 km
Apogee alt
466.2 km
Semi-major
6,843.4 km
B*
3.0577e-5
RAAN
27.3411°
Arg perigee
69.5929°
Mean anomaly
290.5225°
Rev number
24,539

§ Raw data

STARLINK-38201 52364U 22045AK  26263.15215740  .00000633  00000+0  30577-4 0  99942 52364  53.1613  27.3411 0001412  69.5929 290.5225 15.33551607245391

JSON: /api/v1/satellites/52364 · /tle

For live sub-satellite position, see the globe view (requires WebGL).

§ Visibility from observer

Set your observer location to see the next 7 days of passes ≥ 10°. The values pass through the URL so the page stays shareable.

No JS? Fill the form by hand. The geolocation button needs JavaScript.